Home > Weather > Locarno > Past weeks

Flag for Switzerland Weather for the Past 2 Weeks in Locarno, Ticino, Switzerland

Now
55 °F

Clear.


Feels Like: 51 °F
Forecast: 31 / 49 °F
Wind: 16 mph from North

Location: Lugano Airport

Current Time: May 4, 2016 at 7:14:56 AM

Latest Report: May 4, 2016 at 6:20 AM


Visibility: 10 mi

Pressure: 30.09 "Hg

Humidity: 31%

Dew Point: 25 °F

Location of LocarnoLocation

Historic Weather in Locarno — Graph

°F

Locarno Temperature Yesterday

Maximum temperature yesterday: 72 °F (at 12:20 PM)
Minimum temperature yesterday: 48 °F (at 5:50 AM)
Average temperature yesterday: 63 °F

High & Low Weather Summary for the Past Weeks

 TemperatureHumidityPressure
High73 °F (Apr 19, 4:20 PM)100% (Apr 27, 7:50 AM)30.33 "Hg (Apr 27, 7:50 AM)
Low36 °F (Apr 25, 6:50 AM)15% (Apr 27, 4:20 PM)29.56 "Hg (Apr 24, 4:20 AM)
Average56 °F56%29.93 "Hg
* Reported Apr 19 5:20 AM — May 4 5:20 AM, Locarno, Weather by CustomWeather, © 2016

Note: Actual official high and low records may vary slightly from our data, if they occured in-between our weather recording intervals... More about our weather records

Advertising

Locarno Weather History for the Previous 24 Hours

Scroll right to see more
 ConditionsComfort  
Time TempWeatherWind HumidityBarometerVisibility
5:20 AM
Wed, May 4
57 °FClear.14 mph29%30.07 "Hg10 mi
4:50 AM57 °FPassing clouds.13 mph29%30.09 "HgN/A
4:20 AM57 °FPassing clouds.17 mph29%30.09 "HgN/A
3:50 AM57 °FPassing clouds.16 mph29%30.07 "HgN/A
3:20 AM57 °FPassing clouds.13 mph29%30.07 "HgN/A
2:50 AM59 °FPassing clouds.13 mph27%30.07 "HgN/A
2:20 AM57 °FPassing clouds.10 mph29%30.09 "HgN/A
1:50 AM59 °FPassing clouds.16 mph27%30.07 "HgN/A
12:50 AM59 °FPassing clouds.14 mph25%30.07 "HgN/A
12:20 AM57 °FPassing clouds.10 mph27%30.07 "HgN/A
11:50 PM
Tue, May 3
59 °FPassing clouds.12 mph25%30.07 "HgN/A
11:20 PM59 °FPassing clouds.14 mph25%30.07 "HgN/A
10:50 PM59 °FPassing clouds.13 mph25%30.07 "HgN/A
10:20 PM61 °FPassing clouds.13 mph23%30.04 "HgN/A
9:50 PM61 °FPassing clouds.9 mph27%30.01 "HgN/A
9:20 PM61 °FSunny.8 mph29%30.01 "Hg10 mi
8:50 PM61 °FPassing clouds.6 mph36%29.98 "HgN/A
8:20 PM63 °FSunny.12 mph32%29.98 "Hg10 mi
7:50 PM64 °FScattered clouds.13 mph30%29.95 "HgN/A
7:20 PM66 °FScattered clouds.13 mph28%29.95 "HgN/A
6:50 PM70 °FPassing clouds.8 mph29%29.95 "HgN/A
6:20 PM68 °FScattered clouds.9 mph26%29.92 "HgN/A
5:50 PM68 °FScattered clouds.15 mph26%29.92 "HgN/A
5:20 PM72 °FScattered clouds.15 mph27%29.92 "HgN/A
4:50 PM72 °FScattered clouds.15 mph25%29.92 "HgN/A
4:20 PM72 °FScattered clouds.14 mph25%29.92 "HgN/A
3:50 PM72 °FScattered clouds.14 mph23%29.92 "HgN/A
3:20 PM72 °FScattered clouds.16 mph25%29.92 "HgN/A
2:50 PM72 °FPartly sunny.16 mph27%29.92 "HgN/A
2:20 PM72 °FScattered clouds.10 mph25%29.92 "HgN/A
1:20 PM72 °FPassing clouds.13 mph27%29.95 "HgN/A
12:50 PM72 °FPassing clouds.9 mph29%29.95 "HgN/A
12:20 PM72 °FPassing clouds.13 mph27%29.95 "HgN/A
11:50 AM70 °FPassing clouds.10 mph25%29.95 "HgN/A
11:20 AM70 °FPassing clouds.12 mph27%29.98 "HgN/A
10:50 AM68 °FPassing clouds.13 mph28%29.98 "HgN/A
10:20 AM68 °FSunny.14 mph26%29.98 "Hg10 mi
9:50 AM66 °FSunny.15 mph30%29.98 "Hg10 mi
9:20 AM66 °FPassing clouds.14 mph30%29.98 "HgN/A
8:50 AM64 °FPassing clouds.15 mph28%29.98 "HgN/A
8:20 AM63 °FPassing clouds.13 mph32%29.98 "HgN/A
7:20 AM54 °FSunny.2 mph54%29.98 "Hg10 mi
Weather by CustomWeather, © 2016

See weather overviewHow to use our weather pages